星链-3131 (STARLINK-3131 )

导读

STARLINK-3131是美国SpaceX公司星链(Starlink)星座的组成卫星,于2021年11月13日由猎鹰9号火箭在佛罗里达州卡纳维拉尔角空军基地发射,属于该次任务的53颗星链卫星之一。它作为低轨互联网星座卫星,旨在为全球提供高速宽带互联网服务,目前在轨运行,支撑星链星座的全球覆盖与服务能力建设,是SpaceX星链大规模组网的重要组成部分。

Basic Information
目录编号:
49427
目录名称:
STARLINK-3131
国际标识:
2021-104V
轨道中心:
EARTH
卫星名称:
星链-3131
卫星全名:
星链-3131 (STARLINK-3131 )
卫星状态:
在轨 (已飞行1678 天)
发射日期:
2021-11-13 UTC
国别 :
美国 (US)
星等 :
--
Orbit Information
数据来源 国际轨道数据 AOE轨道数据
星历时间 2026-06-17T13:32:59+0800
1天前
查看轨道信息
2026-06-17T05:00:00+0800
1天前
查看轨道信息
半长轴 6917.914km 6917.896km
偏心率 0.0001698 0.0001739
轨道倾角 53.161° 53.161°
近地点辐角 92.654° 96.992°
升交点赤经 142.177° 143.779°
平近点角 267.464° 127.085°
近地点 538.602km 538.555km
远地点 540.952km 540.963km
周期 95.438分钟 95.438分钟
每日圈数 15.088291 15.088351
Detailed Information
固有亮度:
5
最大亮度:
2.5
卫星平台:
Starlink v1.5
覆盖范围:
全球
运营商:
太空探索技术公司
运营商所在国:
美国
制造商(研发单位):
太空探索技术公司
制造商所在国:
美国
使用方式:
暂无
Satellite Introduction
星链(Starlink)计划是由太空探索技术公司(SpaceX)提出的一个巨型低轨卫星互联网星座项目,计划在2019年至2024年间在太空搭建由约1.2万颗卫星组成的“星链”网络,其中1584颗将部署在地球上空550千米处的近地轨道,并从2020年开始工作。该卫星仍在工作。
2D Orbit Map
3D Orbit Map
Orbit Altitude Analysis Chart
Orbit Inclination Analysis Chart
Orbit Comprehensive Analysis Chart
View Comprehensive Chart